Change the Weather History Date:

Sunday, February 9, 2014

  Actual Average (KTOL) Record (KTOL)
Temperature  
Mean Temperature 14 °F 27 °F  
Max Temperature 21 °F 34 °F 62 °F (1966)
Min Temperature 3 °F 20 °F -15 °F (1899)
Degree Days  
Heating Degree Days 51 38  
Month to date heating degree days 348  
Since 1 July heating degree days 3897  
Cooling Degree Days 0 0  
Month to date cooling degree days 0  
Year to date cooling degree days 0  
Moisture  
Dew Point 11 °F    
Average Humidity 79    
Maximum Humidity 88    
Minimum Humidity 63    
Precipitation  
Precipitation 0.15 in 0.07 in 0.98 in (2001)
Month to date precipitation 0.61  
Year to date precipitation 2.66  
Snow  
Snow 0.00 in 0.30 in - ()
Month to date snowfall 3.3  
Since 1 July snowfall 24.4  
Snow Depth -    
Sea Level Pressure  
Sea Level Pressure 30.10 in    
Wind  
Wind Speed 4 mph (West)    
Max Wind Speed 15 mph    
Max Gust Speed -    
Visibility 4 miles    
Events Fog , Snow    
T = Trace of Precipitation, MM = Missing Value Source: NWS Daily Summary

Daily Weather History Graph

Daily Weather History Graph

Search for Another Location

Airport or City:

Trip Planner

Search our weather history database for the weather conditions in past years. The results will help you decide how hot, cold, wet, or windy it might be!

Date:

Astronomy

Feb. 09, 2014 Rise Set
Actual Time 7:36 AM EST 5:59 PM EST
Civil Twilight 7:08 AM EST 6:28 PM EST
Nautical Twilight 6:35 AM EST 7:01 PM EST
Astronomical Twilight 6:03 AM EST 7:33 PM EST
Moon 1:37 PM EST (2/9) 3:42 AM EST (2/9)
Length of Visible Light 11h 20m
Length of Day
10h 23m
Waxing Gibbous, 77% of the Moon is Illuminated
Feb 9
Waxing Gibbous
Feb 14
Full
Feb 22
Last Quarter
Mar 1
New
Mar 8
First Quarter

Hourly Weather History & Observations

Time (EST) Temp. Windchill Dew Point Humidity Pressure Visibility Wind Dir Wind Speed Gust Speed Precip Events Conditions
12:53 AM 12.9 °F 6.9 °F 9.0 °F 84% 30.19 in 4.0 mi ESE 3.5 mph - 0.00 in   Overcast
1:53 AM 12.9 °F 6.9 °F 9.0 °F 84% 30.17 in 5.0 mi ESE 3.5 mph - 0.00 in Snow Light Snow
2:53 AM 14.0 °F 8.2 °F 10.0 °F 84% 30.15 in 6.0 mi ESE 3.5 mph - 0.00 in   Overcast
3:28 AM 14.0 °F - 10.0 °F 84% 30.10 in 7.0 mi Calm Calm - N/A   Overcast
3:53 AM 14.0 °F - 10.0 °F 84% 30.14 in 3.0 mi Calm Calm - 0.00 in Snow Light Snow
3:57 AM 14.0 °F - 10.0 °F 84% 30.10 in 1.8 mi Calm Calm - 0.00 in Snow Light Snow
4:01 AM 14.0 °F - 10.0 °F 84% 30.11 in 1.0 mi Calm Calm - 0.00 in Snow Light Snow
4:10 AM 14.0 °F - 10.9 °F 88% 30.11 in 0.8 mi Calm Calm - 0.01 in Snow Light Snow
4:53 AM 15.1 °F - 10.9 °F 84% 30.14 in 0.8 mi Calm Calm - 0.04 in Snow Light Snow
5:33 AM 15.1 °F - 10.9 °F 84% 30.09 in 1.0 mi Calm Calm - 0.03 in Snow Light Snow
5:46 AM 15.1 °F - 10.9 °F 84% 30.09 in 1.2 mi Calm Calm - 0.03 in Snow Light Snow
5:53 AM 15.1 °F - 10.9 °F 84% 30.12 in 1.2 mi Calm Calm - 0.03 in Snow Light Snow
6:06 AM 15.1 °F - 10.9 °F 84% 30.08 in 1.0 mi Calm Calm - 0.01 in Snow Light Snow
6:15 AM 15.1 °F - 10.9 °F 84% 30.09 in 0.8 mi Calm Calm - 0.01 in Snow Light Snow
6:31 AM 15.1 °F - 10.9 °F 84% 30.08 in 1.0 mi Calm Calm - 0.02 in Snow Light Snow
6:49 AM 15.8 °F - 10.4 °F 79% 30.08 in 0.8 mi Calm Calm - 0.03 in Snow Light Snow
6:53 AM 15.1 °F - 10.9 °F 84% 30.11 in 0.8 mi Calm Calm - 0.03 in Snow Light Snow
7:00 AM 15.1 °F - 10.9 °F 84% 30.07 in 1.2 mi Calm Calm - 0.00 in Snow Light Snow
7:32 AM 15.1 °F - 10.9 °F 84% 30.06 in 1.0 mi Calm Calm - 0.01 in Snow Light Snow
7:39 AM 15.1 °F - 10.9 °F 84% 30.06 in 1.5 mi Calm Calm - 0.01 in Snow Light Snow
7:50 AM 15.8 °F - 10.4 °F 79% 30.07 in 0.8 mi Calm Calm - 0.01 in Snow Light Snow
7:53 AM 15.1 °F - 10.9 °F 84% 30.09 in 0.8 mi Calm Calm - 0.01 in Snow Light Snow
8:18 AM 15.1 °F - 12.0 °F 88% 30.07 in 0.5 mi Calm Calm - 0.01 in Fog , Snow Snow
8:53 AM 15.1 °F - 12.0 °F 88% 30.09 in 0.5 mi Calm Calm - 0.03 in Fog , Snow Snow
9:21 AM 16.0 °F - 12.0 °F 84% 30.06 in 1.0 mi Calm Calm - 0.00 in Snow Light Snow
9:44 AM 16.0 °F 7.4 °F 12.0 °F 84% 30.05 in 0.8 mi West 5.8 mph - 0.01 in Snow Light Snow
9:53 AM 17.1 °F 7.6 °F 12.0 °F 81% 30.09 in 0.5 mi West 6.9 mph - 0.01 in Snow Snow
10:09 AM 17.1 °F 7.6 °F 12.9 °F 84% 30.05 in 1.0 mi WNW 6.9 mph - 0.00 in Snow Light Snow
10:17 AM 17.1 °F 6.6 °F 12.9 °F 84% 30.06 in 0.8 mi WNW 8.1 mph - 0.00 in Snow Light Snow
10:42 AM 17.1 °F 4.3 °F 12.0 °F 81% 30.06 in 1.2 mi WNW 11.5 mph - 0.00 in Snow Light Snow
10:53 AM 18.0 °F 8.7 °F 12.9 °F 81% 30.09 in 2.5 mi WNW 6.9 mph - 0.00 in Snow Light Snow
11:01 AM 18.0 °F 7.7 °F 12.0 °F 78% 30.05 in 4.0 mi WNW 8.1 mph - 0.00 in Snow Light Snow
11:25 AM 18.0 °F 6.9 °F 12.0 °F 78% 30.05 in 4.0 mi West 9.2 mph - 0.00 in   Haze
11:53 AM 19.0 °F 8.2 °F 12.0 °F 74% 30.09 in 8.0 mi WNW 9.2 mph - 0.00 in   Mostly Cloudy
12:20 PM 19.9 °F 9.3 °F 12.9 °F 74% 30.05 in 5.0 mi West 9.2 mph - N/A   Haze
12:53 PM 19.9 °F 6.7 °F 12.0 °F 71% 30.08 in 9.0 mi West 13.8 mph - N/A   Overcast
1:35 PM 21.0 °F 9.3 °F 12.0 °F 68% 30.04 in 10.0 mi WNW 11.5 mph - N/A   Scattered Clouds
1:53 PM 21.0 °F 9.3 °F 12.0 °F 68% 30.07 in 9.0 mi West 11.5 mph - N/A   Scattered Clouds
2:53 PM 21.9 °F 10.4 °F 12.0 °F 66% 30.08 in 10.0 mi West 11.5 mph - N/A   Mostly Cloudy
3:05 PM 21.9 °F 9.8 °F 10.9 °F 63% 30.05 in 10.0 mi West 12.7 mph - N/A   Mostly Cloudy
3:53 PM 21.9 °F 8.7 °F 12.0 °F 66% 30.08 in 10.0 mi West 15.0 mph - N/A   Overcast
4:11 PM 21.9 °F 8.7 °F 12.0 °F 66% 30.06 in 10.0 mi West 15.0 mph - N/A   Overcast
4:31 PM 21.0 °F 8.6 °F 10.0 °F 63% 30.06 in 10.0 mi WNW 12.7 mph - N/A   Mostly Cloudy
4:53 PM 21.9 °F 9.8 °F 10.9 °F 63% 30.10 in 10.0 mi West 12.7 mph - N/A   Overcast
5:53 PM 21.0 °F 9.9 °F 12.0 °F 68% 30.16 in 10.0 mi WSW 10.4 mph - N/A   Overcast
6:53 PM 19.9 °F 6.7 °F 12.0 °F 71% 30.18 in 8.0 mi West 13.8 mph - 0.00 in Snow Light Snow
7:53 PM 18.0 °F 6.1 °F 10.9 °F 74% 30.19 in 10.0 mi WSW 10.4 mph - 0.00 in   Overcast
8:53 PM 16.0 °F 4.4 °F 9.0 °F 74% 30.21 in 10.0 mi WSW 9.2 mph - N/A   Mostly Cloudy
9:53 PM 12.9 °F 2.6 °F 7.0 °F 77% 30.22 in 10.0 mi WSW 6.9 mph - N/A   Partly Cloudy
10:53 PM 7.0 °F -4.5 °F 3.0 °F 84% 30.22 in 8.0 mi SW 6.9 mph - N/A   Partly Cloudy
11:53 PM 3.9 °F -9.4 °F -0.0 °F 84% 30.23 in 7.0 mi SW 8.1 mph - N/A   Clear